User: anonymous   Login
Location: Albuquerque Trailhead
(34.7934°N, 106.3736°W)
Time: 09:35:22
(UTC+00:00)
Language:

Cosmos 1607 - Orbit

View from above orbital plane
View from above orbital plane
View from above satellite
View from above satellite

Ground track
Ground track

The orbit data is extracted from the following two-line orbital elements,

1 15378U 84112A   21263.33350164 -.00000106  00000-0 -15094-4 0  9991
2 15378  64.9911 221.9920 0051478 218.1108 141.6307 13.83573146865504
Epoch (UTC): 20 September 2021 08:00:14
Eccentricity: 0.0051478
inclination: 64.9911°
perigee height: 913 km
apogee height: 989 km
right ascension of ascending node: 221.9920°
argument of perigee: 218.1108°
revolutions per day: 13.83573146
mean anomaly at epoch: 141.6307°
orbit number at epoch: 86550

The dashed part of the orbit path shows where the satellite is in the earth's shadow,  

DLR